Location: Home
(40.5300°N, 105.0300°W)
Time: 12:44:00
(UTC-06:00)

X-37B - Visible Passes

Search period start: 23 June 2021 00:00
Search period end: 03 July 2021 00:00
Orbit: 386 x 389 km, 45.0° (Epoch: 10 June)

Date Brightness Start Highest point End Pass type
(mag) Time Alt. Az. Time Alt. Az. Time Alt. Az.
23 Jun 1.5 04:04:45 26° SSW 04:04:45 26° SSW 04:07:26 10° SSE visible
23 Jun 0.4 22:12:46 10° WSW 22:15:56 83° SSE 22:19:06 10° ENE visible
23 Jun 2.5 23:49:48 10° WNW 23:51:55 30° NW 23:51:55 30° NW visible
24 Jun 0.8 21:14:34 10° SW 21:17:37 47° SSE 21:20:41 10° ENE visible
24 Jun 1.7 22:51:14 10° W 22:54:18 44° NNW 22:56:42 15° ENE visible
25 Jun 3.4 00:28:20 10° WNW 00:29:00 15° WNW 00:29:00 15° WNW visible
25 Jun 1.1 21:52:42 10° W 21:55:51 61° NNW 21:58:59 10° ENE visible
25 Jun 2.2 23:29:52 10° WNW 23:32:48 34° N 23:33:17 32° NNE visible
26 Jun 2.1 22:31:19 10° WNW 22:34:18 36° N 22:37:17 10° ENE visible
27 Jun 3.0 00:08:16 10° WNW 00:09:37 22° NW 00:09:37 22° NW visible
27 Jun 1.8 21:32:46 10° W 21:35:49 44° NNW 21:38:53 10° ENE visible
27 Jun 2.0 23:09:52 10° WNW 23:12:51 36° N 23:13:36 31° NE visible
28 Jun 2.2 22:11:23 10° WNW 22:14:20 34° N 22:17:17 10° ENE visible
28 Jun 2.6 23:48:09 10° WNW 23:49:48 27° NW 23:49:48 27° NW visible
29 Jun 2.1 21:12:51 10° WNW 21:15:50 36° N 21:18:49 10° ENE visible
29 Jun 1.6 22:49:48 10° WNW 22:52:52 44° NNE 22:53:42 34° NE visible
30 Jun 2.0 21:51:24 10° WNW 21:54:22 36° N 21:57:21 10° ENE visible
30 Jun 2.2 23:28:03 10° WNW 23:29:51 31° WNW 23:29:51 31° WNW visible
01 Jul 0.9 22:29:41 10° WNW 22:32:50 62° NNE 22:33:45 39° E visible
02 Jul 1.6 21:31:19 10° WNW 21:34:24 44° NNE 21:37:27 10° E visible
02 Jul 2.0 23:08:00 10° WNW 23:09:56 30° W 23:09:56 30° W visible
